EW9560 Weather Reports


Display with metric or nautical units.
time (UTC)temp
F
wind
direction
speed
MPH
gust
MPH
rain 1hr
in
rain 24hr
in
rain mn
in
humidity
%
barometer
mb
20260901074532 57 148 2.0 5.0 0.00 0.00 0.00 70 1010.3
20260901071534 58 192 0.0 3.0 0.00 0.00 0.00 66 1010.2
20260901070033 59 159 1.0 3.0 0.00 0.00 0.00 64 1010.0
20260901064531 60 174 2.0 4.0 0.00 0.00 0.00 63 1010.2
20260901063035 60 158 2.0 5.0 0.00 0.00 0.00 63 1010.2
20260901053031 63 178 2.0 6.0 0.00 0.00 0.00 57 1010.2
20260901051533 63 158 3.0 5.0 0.00 0.00 0.00 58 1010.2
20260901043029 67 180 1.0 3.0 0.00 0.00 0.00 51 1009.8
20260901041532 69 177 2.0 5.0 0.00 0.00 0.00 46 1009.7
20260901040036 68 167 3.0 6.0 0.00 0.00 0.00 47 1009.5
20260901034536 68 180 2.0 4.0 0.00 0.00 0.00 49 1009.3
20260901033038 69 196 2.0 6.0 0.00 0.00 0.00 48 1009.1
20260901031537 70 217 2.0 4.0 0.00 0.00 0.00 47 1009.0
20260901024538 71 211 3.0 5.0 0.00 0.00 0.00 47 1008.6
20260901023036 72 216 3.0 5.0 0.00 0.00 0.00 46 1008.5
20260901021535 76 190 1.0 3.0 0.00 0.00 0.00 38 1008.5
20260901020031 79 222 0.0 3.0 0.00 0.00 0.00 34 1008.4
20260901014642 82 270 1.0 2.0 0.00 0.00 0.00 31 1008.5
20260901004535 87 228 2.0 4.0 0.00 0.00 0.00 24 1008.8
20260901003039 87 165 0.0 3.0 0.00 0.00 0.00 21 1008.9
20260901001528 87 97 3.0 8.0 0.00 0.00 0.00 21 1009.0
20260901000036 88 112 3.0 6.0 0.00 0.00 0.00 21 1009.2
20260831234536 87 19 1.0 4.0 0.00 0.00 0.00 21 1009.4
20260831233110 86 63 3.0 8.0 0.00 0.00 0.00 22 1009.5
20260831231536 87 89 2.0 6.0 0.00 0.00 0.00 22 1009.7
20260831230038 87 121 4.0 12.0 0.00 0.00 0.00 22 1010.0
20260831224532 87 108 3.0 8.0 0.00 0.00 0.00 24 1010.3
20260831221536 86 115 3.0 8.0 0.00 0.00 0.00 24 1010.7
20260831220035 85 107 4.0 11.0 0.00 0.00 0.00 24 1010.8
20260831214535 85 113 4.0 10.0 0.00 0.00 0.00 25 1011.1
20260831213109 84 100 5.0 12.0 0.00 0.00 0.00 26 1011.4
20260831211538 84 112 5.0 13.0 0.00 0.00 0.00 26 1011.6
20260831210035 83 126 5.0 12.0 0.00 0.00 0.00 28 1011.8
20260831204534 81 87 4.0 11.0 0.00 0.00 0.00 30 1012.0
20260831203035 80 73 5.0 12.0 0.00 0.00 0.00 31 1012.4
20260831201537 80 67 4.0 11.0 0.00 0.00 0.00 32 1012.8
20260831200110 79 73 5.0 13.0 0.00 0.00 0.00 32 1013.0
20260831194534 78 62 6.0 12.0 0.00 0.00 0.00 33 1013.2
20260831193031 77 65 4.0 11.0 0.00 0.00 0.00 35 1013.6
20260831191536 77 55 5.0 13.0 0.00 0.00 0.00 35 1013.9
20260831190108 76 79 4.0 11.0 0.00 0.00 0.00 37 1014.2
20260831184532 75 62 5.0 11.0 0.00 0.00 0.00 41 1014.5
20260831183032 74 79 5.0 12.0 0.00 0.00 0.00 43 1014.8
20260831181537 72 50 4.0 12.0 0.00 0.00 0.00 48 1015.0
20260831174536 69 25 4.0 7.0 0.00 0.00 0.00 57 1015.3
20260831173036 66 350 2.0 6.0 0.00 0.00 0.00 62 1015.4
20260831171537 65 354 2.0 6.0 0.00 0.00 0.00 64 1015.7
20260831170033 64 335 1.0 4.0 0.00 0.00 0.00 65 1015.9
20260831164612 62 325 0.0 2.0 0.00 0.00 0.00 68 1016.1
20260831163035 60 357 0.0 3.0 0.00 0.00 0.00 70 1016.3
20260831161533 59 325 0.0 2.0 0.00 0.00 0.00 72 1016.5
20260831160031 58 268 0.0 2.0 0.00 0.00 0.00 75 1016.6
20260831154532 56 193 0.0 2.0 0.00 0.00 0.00 78 1016.6
20260831151611 52 192 2.0 4.0 0.00 0.00 0.00 84 1016.6
20260831150035 50 189 2.0 4.0 0.00 0.00 0.00 87 1016.5
20260831144535 48 176 2.0 5.0 0.00 0.00 0.00 91 1016.4
20260831143030 46 141 1.0 3.0 0.00 0.00 0.00 91 1016.4
20260831141537 45 128 1.0 3.0 0.00 0.00 0.00 90 1016.1
20260831140109 46 91 0.0 1.0 0.00 0.00 0.00 90 1016.0
20260831133032 47 180 3.0 4.0 0.00 0.00 0.00 90 1015.9
20260831131533 47 173 2.0 4.0 0.00 0.00 0.00 90 1015.9
20260831123034 48 157 1.0 2.0 0.00 0.00 0.00 87 1015.9
20260831121535 48 159 2.0 4.0 0.00 0.00 0.00 86 1015.9
20260831120034 49 180 2.0 3.0 0.00 0.00 0.00 86 1015.9
20260831114536 50 184 3.0 5.0 0.00 0.00 0.00 86 1016.0
20260831113034 50 179 3.0 6.0 0.00 0.00 0.00 86 1016.0
20260831111535 49 180 4.0 6.0 0.00 0.00 0.00 87 1016.0
20260831110035 49 145 0.0 4.0 0.00 0.00 0.00 87 1016.0
20260831104535 49 151 1.0 4.0 0.00 0.00 0.00 86 1016.0
20260831103034 49 197 1.0 3.0 0.00 0.00 0.00 85 1016.1
20260831101534 50 177 1.0 3.0 0.00 0.00 0.00 85 1016.1
20260831100143 50 200 0.0 4.0 0.00 0.00 0.00 83 1016.2
20260831094609 51 182 0.0 2.0 0.00 0.00 0.00 82 1016.4
20260831091534 52 171 3.0 4.0 0.00 0.00 0.00 81 1016.5
20260831090109 52 157 1.0 3.0 0.00 0.00 0.00 82 1016.6
20260831084529 52 157 1.0 3.0 0.00 0.00 0.00 82 1016.6
20260831083142 52 157 1.0 2.0 0.00 0.00 0.00 81 1016.7